This is the latest recevied weather packets stored in our database for station/object KC1IUC-13. If no packets are shown the sender has not sent any weather packets the latest 10 day(s).
| Time | Temp. | Humidity | Pressure | Rain* | Wind** | Luminosity | Snow |
|---|---|---|---|---|---|---|---|
| 1777401903 | 21.11° C | 44% | 1015.9 hPa | 0 mm | - | 357 W/m² | - |
| 1777401363 | 21.11° C | 44% | 1016.2 hPa | 0 mm | - | 373 W/m² | - |
| 1777400823 | 21.11° C | 44% | 1015.9 hPa | 0 mm | - | 438 W/m² | - |
| 1777400283 | 20.56° C | 44% | 1016.2 hPa | 0 mm | - | 413 W/m² | - |
| 1777399743 | 20.56° C | 44% | 1016.6 hPa | 0 mm | - | 273 W/m² | - |
| 1777399203 | 20.56° C | 45% | 1016.2 hPa | 0 mm | - | 298 W/m² | - |
| 1777398843 | 21.11° C | 45% | 1016.2 hPa | 0 mm | - | 273 W/m² | - |
| 1777398303 | 20.56° C | 45% | 1016.6 hPa | 0 mm | - | 277 W/m² | - |
| 1777397763 | 20.56° C | 46% | 1016.2 hPa | 0 mm | - | 315 W/m² | - |
| 1777397223 | 20.56° C | 46% | 1016.6 hPa | 0 mm | - | 249 W/m² | - |
| 1777396683 | 20.56° C | 46% | 1016.6 hPa | 0 mm | - | 270 W/m² | - |
| 1777396143 | 21.11° C | 47% | 1016.6 hPa | 0 mm | - | 308 W/m² | - |
| 1777395603 | 21.67° C | 47% | 1016.6 hPa | 0 mm | - | 405 W/m² | - |
| 1777395243 | 21.67° C | 48% | 1016.6 hPa | 0 mm | - | 273 W/m² | - |
| 1777394703 | 21.11° C | 48% | 1016.6 hPa | 0 mm | - | 500 W/m² | - |
| 1777394163 | 21.67° C | 49% | 1016.9 hPa | 0 mm | - | 531 W/m² | - |
| 1777393623 | 21.67° C | 50% | 1016.6 hPa | 0 mm | - | 512 W/m² | - |
| 1777393083 | 21.67° C | 51% | 1016.9 hPa | 0 mm | - | 620 W/m² | - |
| 1777392543 | 21.67° C | 52% | 1017.3 hPa | 0 mm | - | 489 W/m² | - |
| 1777392004 | 20.56° C | 52% | 1017.3 hPa | 0 mm | - | 559 W/m² | - |
| 1777391644 | 20° C | 53% | 1017.3 hPa | 0 mm | - | 436 W/m² | - |
| 1777391104 | 20° C | 53% | 1017.3 hPa | 0 mm | - | 384 W/m² | - |
| 1777390564 | 20° C | 54% | 1017.3 hPa | 0 mm | - | 338 W/m² | - |
| 1777390024 | 20° C | 55% | 1017.3 hPa | 0 mm | - | 196 W/m² | - |
| 1777389484 | 20° C | 56% | 1017.6 hPa | 0 mm | - | 147 W/m² | - |
* Rain latest hour (hover to see other rain measurements)
** Current wind speed in m/s (hover to see current wind gust speed)